[ hide orbit diagram ]
For accurate long-term ephemerides, please instead use our Horizons system.This orbit viewer was implemented using two-body methods, and hence should not be used for determining accurate long-term trajectories (over several years or decades) or planetary encounter circumstances.
|
Orbital Elements at Epoch 2457800.5 (2017-Feb-16.0) TDB
Reference: JPL 62 (heliocentric ecliptic J2000)
Element | Value | Uncertainty (1-sigma) | Units |
e | .6126650383337702 | 9.9856e-08 | |
a | 4.389353771719085 | 1.1904e-06 | au |
q | 1.700150174908333 | 2.3563e-07 | au |
i | 12.20450342919124 | 4.9013e-06 | deg |
node | 339.6274201271978 | 2.2396e-05 | deg |
peri | 74.89804338193238 | 3.416e-05 | deg |
M | 358.5582133148164 | 8.3201e-06 | deg |
tp | 2457813.952339361232 (2017-Mar-01.45233936) | 8.1284e-05 | TDB |
period | 3358.917251636945 9.20 | 0.0013664 3.741e-06 | d yr |
n | .1071773946870994 | 4.36e-08 | deg/d |
Q | 7.078557368529837 | 1.9197e-06 | au |
|
Additional Model Parameters
Parameter | Value | Uncertainty (1-sigma) |
A1 [EST] | 3.904031314268461E-10 | 1.113E-10 |
A2 [EST] | -4.966109079668308E-11 | 3.733E-13 |
|
| | Orbit Determination Parameters
Additional Information
|
[ show covariance matrix ]
93P/Lovas 1 Discovered 1980-Dec-05 by Lovas, Miklos at Konkoly Observatory, Hungary |
discovered on plate/photo taken on discovery date |
Reference: comet.dis | Last Updated: 2003-08-29 |
|
[ show close-approach data ]
Alternate Designations
Perihelion Year (est.) | New-Style Desig | Roman Numeral | Year/ Letter | 1989.6 | 93P/1989 N2 | 1989 XIII | 1989p |
1980.4 | 93P/1980 X1 | 1980 V | 1980s |
|
|